Sarasota, FL

9:44 AM EDT on March 25, 2017 (GMT -0400)
Sarasota-bradenton

Weather History for KSRQ - March, 2014

Change the Weather History Date:

Saturday, March 29, 2014

  Actual Average Record
Temperature  
Mean Temperature 73 °F 68 °F  
Max Temperature 77 °F 78 °F 89 °F (1989)
Min Temperature 68 °F 59 °F 40 °F (1919)
Degree Days  
Heating Degree Days 0 1  
Month to date heating degree days 35 48  
Since 1 July heating degree days 343 466  
Cooling Degree Days 8 4  
Month to date cooling degree days 86 94  
Year to date cooling degree days 202 198  
Growing Degree Days 23 (Base 50)    
Moisture  
Dew Point 68 °F    
Average Humidity 87    
Maximum Humidity 93    
Minimum Humidity 79    
Precipitation  
Precipitation 0.46 in 0.13 in 5.05 in (2001)
Month to date precipitation 6.47 3.60  
Year to date precipitation 10.09 8.79  
Sea Level Pressure  
Sea Level Pressure 29.96 in    
Wind  
Wind Speed 14 mph (SSW)    
Max Wind Speed 25 mph    
Max Gust Speed 34 mph    
Visibility 8 miles    
Events Rain , Thunderstorm    
T = Trace of Precipitation, MM = Missing Value Source: NWS Daily Summary

Daily Weather History Graph

Daily Weather History Graph

Search for Another Location

Airport or City:

Trip Planner

Search our weather history database for the weather conditions in past years. The results will help you decide how hot, cold, wet, or windy it might be!

Date:

Astronomy

Mar. 29, 2014 Rise Set
Actual Time 7:24 AM EDT 7:46 PM EDT
Civil Twilight 7:00 AM EDT 8:09 PM EDT
Nautical Twilight 6:33 AM EDT 8:36 PM EDT
Astronomical Twilight 6:05 AM EDT 9:04 PM EDT
Moon 6:25 AM EDT (3/29) 6:53 PM EDT (3/29)
Length of Visible Light 13h 08m
Length of Day
12h 22m
Waning Crescent, 2% of the Moon is Illuminated
Mar 29
Waning Crescent
Mar 30
New
Apr 7
First Quarter
Apr 15
Full
Apr 22
Last Quarter

Hourly Weather History & Observations

Time (EDT) Temp. Dew Point Humidity Pressure Visibility Wind Dir Wind Speed Gust Speed Precip Events Conditions
12:53 AM 73.9 °F 66.0 °F 76% 30.01 in 10.0 mi SE 15.0 mph - N/A   Scattered Clouds
1:53 AM 72.0 °F 66.9 °F 84% 30.02 in 2.5 mi SSE 13.8 mph - 0.15 in Rain Light Rain
2:01 AM 71.1 °F 66.9 °F 87% 30.01 in 10.0 mi SSE 10.4 mph - 0.00 in Rain Light Rain
2:53 AM 71.1 °F 66.9 °F 87% 29.99 in 10.0 mi SSE 9.2 mph - 0.06 in Rain Light Rain
3:53 AM 71.1 °F 68.0 °F 90% 29.98 in 10.0 mi South 8.1 mph - 0.00 in   Overcast
4:53 AM 72.0 °F 69.1 °F 91% 29.97 in 10.0 mi SSE 12.7 mph - 0.00 in   Overcast
5:53 AM 73.9 °F 70.0 °F 87% 29.98 in 10.0 mi South 19.6 mph 29.9 mph 0.00 in Rain Light Rain
6:13 AM 73.0 °F 70.0 °F 90% 29.97 in 7.0 mi SSE 18.4 mph 26.5 mph 0.01 in Rain Light Rain
6:50 AM 73.4 °F 69.8 °F 88% 29.97 in 10.0 mi South 17.3 mph - 0.02 in   Mostly Cloudy
6:53 AM 73.0 °F 70.0 °F 90% 29.97 in 10.0 mi South 16.1 mph - 0.02 in   Mostly Cloudy
7:24 AM 73.9 °F 71.1 °F 91% 29.96 in 10.0 mi South 16.1 mph 26.5 mph N/A   Mostly Cloudy
7:32 AM 73.9 °F 71.1 °F 91% 29.97 in 10.0 mi South 19.6 mph 28.8 mph N/A   Mostly Cloudy
7:53 AM 73.0 °F 70.0 °F 90% 29.96 in 9.0 mi South 21.9 mph 33.4 mph N/A   Overcast
8:53 AM 75.0 °F 71.1 °F 87% 29.96 in 10.0 mi South 18.4 mph 26.5 mph N/A   Partly Cloudy
9:48 AM 77.0 °F 71.6 °F 83% 29.97 in 10.0 mi South 19.6 mph 27.6 mph N/A   Mostly Cloudy
9:53 AM 77.0 °F 72.0 °F 84% 29.97 in 10.0 mi South 18.4 mph 31.1 mph N/A   Mostly Cloudy
10:34 AM 77.0 °F 72.0 °F 84% 29.97 in 10.0 mi South 18.4 mph - N/A   Overcast
10:53 AM 75.9 °F 72.0 °F 87% 29.98 in 9.0 mi South 17.3 mph 25.3 mph N/A   Overcast
11:53 AM 75.0 °F 71.1 °F 87% 29.97 in 8.0 mi South 16.1 mph - N/A   Overcast
12:53 PM 75.0 °F 71.1 °F 87% 29.96 in 8.0 mi South 15.0 mph 25.3 mph N/A   Overcast
1:17 PM 75.0 °F 71.1 °F 87% 29.97 in 8.0 mi South 15.0 mph - N/A   Mostly Cloudy
1:53 PM 73.9 °F 71.1 °F 91% 29.97 in 6.0 mi SSW 10.4 mph - 0.00 in   Overcast
2:06 PM 73.0 °F 70.0 °F 90% 29.98 in 5.0 mi SW 9.2 mph - 0.00 in Rain Light Rain
2:53 PM 73.0 °F 71.1 °F 93% 29.96 in 4.0 mi SSW 12.7 mph - 0.03 in Rain Light Rain
3:00 PM 73.0 °F 71.1 °F 93% 29.96 in 4.0 mi SSW 9.2 mph - 0.00 in Rain Light Rain
3:21 PM 73.9 °F 71.1 °F 91% 29.96 in 3.0 mi SW 17.3 mph 28.8 mph 0.02 in Rain , Thunderstorm Light Thunderstorms and Rain
3:30 PM 73.0 °F 70.0 °F 90% 29.96 in 2.5 mi WSW 18.4 mph 32.2 mph 0.05 in Rain , Thunderstorm Rain
3:40 PM 71.1 °F 68.0 °F 90% 29.98 in 3.0 mi West 16.1 mph 27.6 mph 0.07 in Rain , Thunderstorm Light Rain
3:49 PM 69.8 °F 66.2 °F 88% 29.97 in 5.0 mi West 13.8 mph 28.8 mph 0.07 in Rain , Thunderstorm Light Rain
3:53 PM 70.0 °F 66.0 °F 87% 29.98 in 5.0 mi West 11.5 mph - 0.07 in Rain Light Rain
4:06 PM 70.0 °F 64.9 °F 84% 30.00 in 5.0 mi West 9.2 mph - 0.01 in Rain Light Rain
4:53 PM 69.1 °F 66.0 °F 90% 29.98 in 6.0 mi SSW 9.2 mph - 0.08 in Rain Light Rain
5:20 PM 69.1 °F 66.0 °F 90% 29.93 in 6.0 mi South 13.8 mph - 0.05 in Rain , Thunderstorm Light Rain
5:35 PM 69.1 °F 66.0 °F 90% 29.93 in 10.0 mi SW 10.4 mph - 0.05 in Rain Light Rain
5:53 PM 70.0 °F 66.0 °F 87% 29.92 in 10.0 mi South 13.8 mph - 0.05 in   Mostly Cloudy
6:53 PM 71.1 °F 64.9 °F 81% 29.91 in 10.0 mi South 13.8 mph - N/A   Mostly Cloudy
7:53 PM 70.0 °F 64.9 °F 84% 29.92 in 10.0 mi South 10.4 mph - N/A   Scattered Clouds
8:53 PM 70.0 °F 64.0 °F 81% 29.93 in 10.0 mi SSW 12.7 mph - N/A   Mostly Cloudy
9:53 PM 71.1 °F 64.0 °F 78% 29.94 in 10.0 mi SW 11.5 mph - N/A   Overcast
10:34 PM 71.1 °F 64.9 °F 81% 29.94 in 10.0 mi SW 10.4 mph - N/A   Overcast
10:46 PM 71.1 °F 64.9 °F 81% 29.94 in 10.0 mi SW 10.4 mph - N/A   Overcast
10:53 PM 71.1 °F 64.9 °F 81% 29.94 in 10.0 mi SW 11.5 mph - N/A   Overcast
11:04 PM 71.1 °F 66.0 °F 84% 29.94 in 10.0 mi SW 8.1 mph - N/A   Overcast
11:37 PM 70.0 °F 66.0 °F 87% 29.96 in 10.0 mi WNW 13.8 mph - N/A   Overcast
11:43 PM 70.0 °F 66.0 °F 87% 29.96 in 10.0 mi NW 12.7 mph - N/A   Overcast
11:51 PM 69.8 °F 66.2 °F 88% 29.96 in 10.0 mi NW 12.7 mph - N/A   Overcast
11:53 PM 70.0 °F 66.0 °F 87% 29.96 in 10.0 mi NW 13.8 mph - N/A   Overcast